FW6880 Weather Reports


Display with metric or nautical units.
time (UTC)temp
F
wind
direction
speed
MPH
gust
MPH
rain 1hr
in
rain 24hr
in
rain mn
in
humidity
%
barometer
mb
20210924071527 59 20 0.0 0.0 0.00 0.00 0.00 86 1019.0
20210924070017 59 20 0.0 1.0 0.00 0.00 0.00 85 1019.1
20210924064516 59 20 0.0 0.0 0.00 0.00 0.00 84 1019.0
20210924063039 60 20 0.0 1.0 0.00 0.00 0.00 82 1019.0
20210924060246 61 19 0.0 3.0 0.00 0.00 0.00 80 1018.9
20210924054616 61 19 1.0 3.0 0.00 0.00 0.00 79 1018.8
20210924053100 62 19 0.0 3.0 0.00 0.00 0.00 78 1018.9
20210924051638 62 19 0.0 2.0 0.00 0.00 0.00 77 1019.2
20210924050046 62 19 0.0 2.0 0.00 0.00 0.00 76 1019.2
20210924044632 63 19 0.0 3.0 0.00 0.00 0.00 74 1019.1
20210924043054 63 19 0.0 2.0 0.00 0.00 0.00 75 1019.2
20210924041619 64 19 1.0 3.0 0.00 0.00 0.00 74 1019.1
20210924040035 64 19 1.0 3.0 0.00 0.00 0.00 73 1019.2
20210924034535 64 35 0.0 2.0 0.00 0.00 0.00 72 1019.2
20210924033049 65 15 0.0 2.0 0.00 0.00 0.00 71 1019.0
20210924031544 65 9 1.0 3.0 0.00 0.00 0.00 70 1018.9
20210924030021 66 12 1.0 3.0 0.00 0.00 0.00 70 1019.0
20210924024509 66 360 1.0 3.0 0.00 0.00 0.00 69 1019.0
20210924021726 66 360 1.0 3.0 0.00 0.00 0.00 69 1018.9
20210924020132 66 360 1.0 3.0 0.00 0.00 0.00 70 1019.0
20210924014648 67 360 1.0 3.0 0.00 0.00 0.00 69 1018.8
20210924013238 68 360 1.0 2.0 0.00 0.00 0.00 68 1018.9
20210924011554 67 360 0.0 6.0 0.00 0.00 0.00 69 1018.6
20210924010043 67 360 0.0 2.0 0.00 0.00 0.00 71 1018.7
20210924004552 68 360 0.0 3.0 0.00 0.00 0.00 69 1018.6
20210924003123 69 28 0.0 2.0 0.00 0.00 0.00 66 1018.3
20210924001553 70 360 0.0 2.0 0.00 0.00 0.00 64 1018.4
20210924000038 70 36 1.0 3.0 0.00 0.00 0.00 62 1018.4
20210923234538 71 40 1.0 3.0 0.00 0.00 0.00 61 1018.3
20210923233104 72 46 2.0 6.0 0.00 0.00 0.00 59 1018.3
20210923231521 73 19 1.0 4.0 0.00 0.00 0.00 57 1018.1
20210923230009 73 360 1.0 4.0 0.00 0.00 0.00 57 1018.1
20210923224517 74 20 2.0 6.0 0.00 0.00 0.00 54 1018.0
20210923221619 75 340 1.0 5.0 0.00 0.00 0.00 54 1017.7
20210923220102 75 5 1.0 3.0 0.00 0.00 0.00 53 1017.6
20210923214632 76 5 3.0 6.0 0.00 0.00 0.00 53 1017.6
20210923213133 76 37 2.0 9.0 0.00 0.00 0.00 50 1017.6
20210923211602 76 20 1.0 6.0 0.00 0.00 0.00 52 1017.6
20210923210053 76 63 1.0 6.0 0.00 0.00 0.00 50 1017.6
20210923204530 77 29 1.0 4.0 0.00 0.00 0.00 51 1017.5
20210923203035 76 27 3.0 7.0 0.00 0.00 0.00 49 1017.6
20210923201541 76 35 2.0 6.0 0.00 0.00 0.00 49 1017.7
20210923200008 77 304 1.0 8.0 0.00 0.00 0.00 48 1017.8
20210923194532 77 49 2.0 6.0 0.00 0.00 0.00 48 1017.9
20210923193001 76 41 2.0 6.0 0.00 0.00 0.00 48 1018.0
20210923191632 75 342 3.0 8.0 0.00 0.00 0.00 49 1017.9
20210923190119 76 349 2.0 5.0 0.00 0.00 0.00 49 1018.3
20210923184609 76 330 2.0 8.0 0.00 0.00 0.00 51 1018.7
20210923183117 76 350 3.0 6.0 0.00 0.00 0.00 50 1018.8
20210923181618 76 31 2.0 10.0 0.00 0.00 0.00 47 1019.0
20210923180044 75 64 2.0 8.0 0.00 0.00 0.00 52 1019.1
20210923174553 75 350 3.0 6.0 0.00 0.00 0.00 51 1019.2
20210923173056 74 53 2.0 12.0 0.00 0.00 0.00 52 1019.3
20210923171609 74 49 2.0 9.0 0.00 0.00 0.00 53 1019.7
20210923170034 72 63 3.0 10.0 0.00 0.00 0.00 52 1019.6
20210923164525 73 11 3.0 12.0 0.00 0.00 0.00 52 1019.8
20210923163134 72 9 3.0 12.0 0.00 0.00 0.00 56 1019.9
20210923161529 71 32 2.0 13.0 0.00 0.00 0.00 57 1020.0
20210923160028 71 336 2.0 11.0 0.00 0.00 0.00 60 1020.1
20210923154504 70 35 3.0 10.0 0.00 0.00 0.00 60 1020.2
20210923151848 69 343 1.0 8.0 0.00 0.00 0.00 66 1020.2
20210923150236 67 32 3.0 11.0 0.00 0.00 0.00 67 1020.3
20210923144628 67 33 3.0 8.0 0.00 0.00 0.00 70 1020.2
20210923143049 66 5 2.0 8.0 0.00 0.00 0.00 72 1020.0
20210923141607 65 355 1.0 8.0 0.00 0.00 0.00 74 1020.1
20210923140110 64 281 2.0 10.0 0.00 0.00 0.00 76 1020.1
20210923134546 62 27 2.0 6.0 0.00 0.00 0.00 80 1020.2
20210923133105 61 37 2.0 6.0 0.00 0.00 0.00 81 1020.1
20210923131524 61 19 1.0 7.0 0.00 0.00 0.00 82 1019.9
20210923130011 60 36 1.0 4.0 0.00 0.00 0.00 85 1019.6
20210923123145 58 15 0.0 3.0 0.00 0.00 0.00 88 1019.4
20210923121656 58 15 1.0 3.0 0.00 0.00 0.00 88 1019.1
20210923120202 58 15 1.0 2.0 0.00 0.00 0.00 89 1019.0
20210923114624 58 5 0.0 2.0 0.00 0.00 0.00 88 1018.8
20210923113045 58 5 1.0 3.0 0.00 0.00 0.00 89 1018.8
20210923111558 58 360 1.0 4.0 0.00 0.00 0.00 88 1018.8
20210923110111 58 28 1.0 2.0 0.00 0.00 0.00 88 1018.7
20210923104555 58 28 0.0 3.0 0.00 0.00 0.00 88 1018.8
20210923103058 59 28 1.0 3.0 0.00 0.00 0.00 88 1018.7
20210923101532 59 28 1.0 3.0 0.00 0.00 0.00 88 1018.8
20210923100042 59 28 1.0 3.0 0.00 0.00 0.00 88 1018.6
20210923094514 59 28 1.0 3.0 0.00 0.00 0.00 87 1018.5
20210923093005 59 15 1.0 4.0 0.00 0.00 0.00 87 1018.4
20210923091501 60 5 0.0 3.0 0.00 0.00 0.00 86 1018.2
20210923090145 60 13 1.0 3.0 0.00 0.00 0.00 86 1018.3
20210923084630 60 38 1.0 4.0 0.00 0.00 0.00 85 1018.4
20210923083058 61 26 1.0 3.0 0.00 0.00 0.00 84 1018.4
20210923081559 61 28 1.0 5.0 0.00 0.00 0.00 83 1018.6
20210923080051 62 33 1.0 4.0 0.00 0.00 0.00 82 1018.6
20210923074550 62 36 2.0 8.0 0.00 0.00 0.00 81 1018.6
20210923073116 62 360 1.0 5.0 0.00 0.00 0.00 81 1018.7